Regional Weather Roundup
Issued by NWS Sterling, VA

Home | Current Version | Previous Version | Graphics & Text | Print | Product List | Glossary On
Versions: 1 2 3 4 5 6 7 8 9 10 11 12 13 14 15 16 17 18 19 20 21 22 23 24 25 26 27 28 29 30 31 32 33 34 35 36 37 38 39 40 41 42 43 44 45 46 47 48 49 50
000
ASUS41 KLWX 271310
RWRLWX

REGIONAL WEATHER ROUNDUP
NATIONAL WEATHER SERVICE BALTIMORE MD/WASHINGTON DC
800 AM EST SAT DEC 27 2014

Note: "FAIR" indicates few or no clouds below 12,000 feet
with no significant weather and/or obstructions to visibility.
 TC=TEMPERATURE CELSIUS

 * =Non NWS site. Station does not report precipitation (e.g. rain,
    snow, etc.), thunder, or fog.

DCZ001-MDZ009-015-VAZ040>042-051-053>054-271400-
WASHINGTON METRO

CITY           SKY/WX    TMP DP  RH WIND       PRES   REMARKS
WASHINGTON NAT MOCLDY    39  34  82 S5        30.29R
DULLES         MOCLDY    32  29  88 CALM      30.27R
ANDREWS AFB    PTCLDY    36  34  94 W1        30.28R
FT BELVOIR     PTCLDY    32  30  93 N1        30.28R
QUANTICO       MOCLDY    33  30  88 NW5       30.29R
COLLEGE PARK*  PTCLDY    34  34 100 CALM      30.28R
LEESBURG*      MOCLDY    32  32 100 CALM      30.28R
GAITHERSBURG*  MOCLDY    30  28  93 CALM      30.31R

$$

MDZ006>007-011-014-271400-
BALTIMORE METRO

CITY           SKY/WX    TMP DP  RH WIND       PRES   REMARKS
BWI AIRPORT    PTCLDY    34  31  88 CALM      30.27R
MD SCIENCE CTR   N/A     39  33  79 MISG      30.29R
ANNAPOLIS      CLOUDY    38  36  92 CALM      30.27S
FORT MEADE*    PTCLDY    32  30  93 CALM      30.30R

$$

MDZ012-015-019>023-271400-
MARYLAND EASTERN SHORE

CITY           SKY/WX    TMP DP  RH WIND       PRES   REMARKS
OCEAN CITY     PTCLDY    34  32  92 CALM      30.31R FOG
SALISBURY      FOG       34  31  88 SE5       30.29F VSB<1/4
BAY BRIDGE AP*   N/A     37  37 100 SE3       30.28S FOG
CAMBRIDGE*     MOCLDY    36  34  93 CALM      30.28R
EASTON*        MOCLDY    37  37 100 CALM      30.32R

$$

MDZ017>025-271400-
SOUTHERN MARYLAND

CITY           SKY/WX    TMP DP  RH WIND       PRES   REMARKS
PATUXENT RIVER MOCLDY    37  32  82 CALM      30.27S
ST INIGOES     PTCLDY    35  31  85 S5        30.28S
LEONARDTOWN*   PTCLDY    37  34  87 CALM      30.29R

$$

MDZ003>005-271400-
NORTH CENTRAL MARYLAND

CITY           SKY/WX    TMP DP  RH WIND       PRES   REMARKS
FREDERICK*     CLEAR     32  28  86 CALM      30.30R
HAGERSTOWN APT MOCLDY    34  29  82 CALM      30.26R
WESTMINSTER*   MOCLDY    36  30  80 CALM      30.25R

$$

MDZ501>502-271400-
WESTERN MARYLAND

CITY           SKY/WX    TMP DP  RH WIND       PRES   REMARKS
OAKLAND*       PTCLDY    37   9  30 W7        30.22S
CUMBERLAND*    PTCLDY    32  30  93 CALM      30.31R

$$

VAZ025>031-271400-
SHENANDOAH VALLEY

CITY           SKY/WX    TMP DP  RH WIND       PRES   REMARKS
WINCHESTER*    MOCLDY    36  28  75 CALM      30.26R
FRONT ROYAL*   FAIR      39  28  65 CALM      30.25R
LURAY*         FAIR      36  34  93 W3        30.26S
NEW MARKET*    FAIR      35  32  88 CALM      30.26S
STAUNTON*      CLOUDY    33  30  88 CALM      30.28S
WAYNESBORO*    FAIR      36  29  75 CALM      30.26S

$$

WVZ021-048>050-054>055-271400-
EASTERN WEST VIRGINIA PANHANDLE

CITY           SKY/WX    TMP DP  RH WIND       PRES   REMARKS
MARTINSBURG    CLOUDY    30  26  85 W3        30.27R
PETERSBURG*    MOCLDY    33  32  97 CALM      30.27R

$$

VAZ036>039-050-271400-
CENTRAL FOOTHILLS

CITY           SKY/WX    TMP DP  RH WIND       PRES   REMARKS
CHARLOTTESVILL CLOUDY    35  31  85 SW3       30.26R
CULPEPER*      CLOUDY    32  30  93 CALM      30.26F
ORANGE*        CLOUDY    34  32  93 CALM      30.27S
GORDONSVILLE*  FAIR      33  32  95 SW3       30.26S
WARRENTON*     FAIR      32  32 100 SE3       30.25F

$$

VAZ055>057-271400-
NORTH AND CENTRAL PIEDMONT

CITY           SKY/WX    TMP DP  RH WIND       PRES   REMARKS
FREDERICKSBRG* MOCLDY    33  33 100 CALM      30.27S
STAFFORD*      MOCLDY    30  30 100 CALM      30.31S

$$

NCZ024-NYZ072-PAZ021-071-VAZ022-071-271400-
OTHER REGIONAL OBSERVATIONS

CITY           SKY/WX    TMP DP  RH WIND       PRES   REMARKS
NEW YORK CITY  PTCLDY    45  29  53 W6        30.27R
PHILADELPHIA   MOCLDY    35  32  88 SW3       30.28R
PITTSBURGH     MOCLDY    36  30  79 SE3       30.21R
ROANOKE        PTCLDY    36  28  73 NE5       30.29S
RICHMOND       PTCLDY    36  32  85 S3        30.30R
RALEIGH        PTCLDY    32  30  92 CALM      30.32R

$$

ANZ530>537-271400-
MARINE OBSERVATIONS

STATION/POSITION TIME  TEMP    WIND        PRES
                       AIR SEA DIR/SP/G
                 (UTC) (F)     (DEG/KT/KT) (MB)
THOMAS PT LIGHT  1300   41 43  210/  4/  5 1026.5R
BALT KEY BRIDGE  1300   37     220/  3/  3 1025.3R
COVE POINT       1300   41     190/  8/  8 1025.1R
LEWISETTA        1300   42 44  220/  5/  6 1025.4R
SOLOMONS ISLAND  1300      43                N/A
PINEY POINT      1300          190/  6/  7   N/A

$$




USA.gov is the U.S. government's official web portal to all federal, state and local government web resources and services.